Flag for Germany Weather past 2 weeks in Porta Westfalica, North Rhine-Westphalia, Germany

Now
57 °F

Passing clouds.


Feels Like: 55 °F
Forecast: 52 / 65 °F
Wind: 9 mph from West

Location: Bueckeburg

Current Time: Sep 2, 2015 at 12:47:58 AM

Latest Report: Sep 1, 2015 at 11:20 PM


Visibility: N/A

Pressure: 29.98 "Hg

Humidity: 88%

Dew point: 54 °F

Location of Porta WestfalicaLocation

Historic Weather in Porta Westfalica — Graph

°F

Porta Westfalica temperature yesterday

Maximum temperature yesterday: 73 °F (at 12:20 AM)
Minimum temperature yesterday: 59 °F (at 9:20 PM)
Average temperature yesterday: 65 °F

Past Weeks' High & Low Weather Summary

 TemperatureHumidityPressure
High91 °F (Aug 31, 4:20 PM)100% (Aug 27, 7:20 PM)30.27 "Hg (Aug 27, 7:20 PM)
Low52 °F (Aug 29, 6:20 AM)30% (Aug 31, 4:20 PM)29.56 "Hg (Aug 24, 6:20 PM)
Average66 °F72%29.97 "Hg
* Reported Aug 17 10:20 PM — Sep 1 10:20 PM, Porta Westfalica, Weather by CustomWeather, © 2015

Note: Actual official high and low records may vary slightly from our data, if they occured in-between our weather recording intervals... More about our weather records

Advertising

Porta Westfalica weather history for previous 24 hours

 ConditionsComfort  
Time TempWeatherWind HumidityBarometerVisibility
10:20 PM
Tue, Sep 1
59 °FPassing clouds.8 mph82%29.95 "HgN/A
9:20 PM59 °FPassing clouds.7 mph94%29.95 "HgN/A
8:20 PM61 °FScattered clouds.8 mph88%29.92 "HgN/A
7:20 PM61 °FPartly sunny.9 mph88%29.92 "HgN/A
6:20 PM61 °FBroken clouds.10 mph88%29.89 "HgN/A
5:20 PM61 °FLight rain. Broken clouds.8 mph94%29.89 "HgN/A
4:20 PM61 °FLight rain. Partly sunny.8 mph94%29.86 "HgN/A
3:20 PM61 °FRain. Partly sunny.10 mph88%29.86 "HgN/A
2:20 PM63 °FLight rain. Partly sunny.9 mph94%29.83 "HgN/A
1:20 PM63 °FLight rain. Partly sunny.8 mph88%29.83 "HgN/A
12:20 PM63 °FLight rain. Mostly cloudy.10 mph88%29.80 "Hg5 mi
11:20 AM64 °FMostly cloudy.12 mph83%29.80 "HgN/A
10:20 AM64 °FPartly sunny.12 mph83%29.80 "HgN/A
9:20 AM66 °FBroken clouds.13 mph83%29.80 "HgN/A
8:20 AM66 °FPartly sunny.12 mph78%29.77 "HgN/A
7:20 AM68 °FPassing clouds.15 mph73%29.77 "HgN/A
6:20 AM68 °FPartly cloudy.14 mph83%29.77 "HgN/A
5:20 AM70 °FPassing clouds.9 mph78%29.77 "HgN/A
4:20 AM70 °FPassing clouds.9 mph83%29.77 "HgN/A
3:20 AM70 °FPassing clouds.10 mph83%29.77 "HgN/A
2:20 AM72 °FPassing clouds.9 mph78%29.77 "HgN/A
1:20 AM72 °FPassing clouds.7 mph78%29.77 "HgN/A
12:20 AM73 °FPassing clouds.6 mph74%29.77 "HgN/A
Weather by CustomWeather, © 2015

See weather overviewHow to use our weather pages